Weather reports worldwide

Advertisment
Dalwhinnie, United Kingdom (99005): temperature & dewpoint: 21.04.2017 00:00:00 - 27.04.2017 00:00:00 (BST)Dalwhinnie, United Kingdom (99005): precipitation: 21.04.2017 00:00:00 - 27.04.2017 00:00:00 (BST)
Date & Time tt [°C] td [°C] rr [mm]
27.04.2017 00:00:00 - - -
26.04.2017 23:00:00 4,2 2,1 0,0
26.04.2017 22:00:00 4,3 2,0 0,0
26.04.2017 21:00:00 4,5 1,3 0,0
26.04.2017 20:00:00 6,1 0,6 0,0
26.04.2017 19:00:00 6,3 0,1 0,0
26.04.2017 18:00:00 6,7 -0,4 0,0
26.04.2017 17:00:00 6,3 -0,9 0,0
26.04.2017 16:00:00 6,5 -0,6 0,0
26.04.2017 15:00:00 6,0 -1,8 0,0
26.04.2017 14:00:00 5,4 -0,8 0,0
26.04.2017 13:00:00 4,3 -1,6 0,0
26.04.2017 12:00:00 3,9 -0,7 0,0
26.04.2017 11:00:00 3,4 -1,8 0,0
26.04.2017 10:00:00 1,3 -1,2 0,0
26.04.2017 09:00:00 1,2 -1,3 0,0
26.04.2017 08:00:00 -0,2 -2,9 0,0
26.04.2017 07:00:00 0,1 -3,6 0,0
26.04.2017 06:00:00 -0,2 -4,2 0,0
26.04.2017 05:00:00 -0,7 -4,0 0,0
26.04.2017 04:00:00 0,1 -3,5 0,0
26.04.2017 03:00:00 0,3 -3,0 0,0
26.04.2017 02:00:00 0,4 -2,8 0,0
26.04.2017 01:00:00 0,3 -2,9 0,0
26.04.2017 00:00:00 0,4 -2,8 0,0
25.04.2017 23:00:00 0,5 -3,2 0,0
25.04.2017 22:00:00 0,7 -2,6 0,0
25.04.2017 21:00:00 0,6 -1,9 0,0
25.04.2017 20:00:00 1,2 -2,1 0,0
25.04.2017 19:00:00 1,4 -0,8 0,2
25.04.2017 18:00:00 1,9 -0,9 0,2
25.04.2017 17:00:00 3,0 -2,0 0,0
25.04.2017 16:00:00 1,2 -1,0 0,0
25.04.2017 15:00:00 1,7 -0,6 0,2
25.04.2017 14:00:00 2,9 -1,1 0,4
25.04.2017 13:00:00 2,6 -0,9 0,2
25.04.2017 12:00:00 0,8 -0,5 0,2
25.04.2017 11:00:00 1,2 -0,6 0,4
25.04.2017 10:00:00 1,0 -1,4 0,2
25.04.2017 09:00:00 0,4 -1,7 0,0
25.04.2017 08:00:00 0,8 -2,8 0,0
25.04.2017 07:00:00 0,5 -2,3 0,0
25.04.2017 06:00:00 0,2 -2,2 0,0
25.04.2017 05:00:00 0,3 -1,6 0,0
25.04.2017 04:00:00 -0,2 -1,4 0,0
25.04.2017 03:00:00 -0,2 -1,6 0,0
25.04.2017 02:00:00 -0,6 -2,1 0,0
25.04.2017 01:00:00 -0,4 -2,8 0,0
25.04.2017 00:00:00 -0,6 -3,8 0,0
24.04.2017 23:00:00 -0,7 -3,0 0,0
24.04.2017 22:00:00 0,3 -1,1 0,0
24.04.2017 21:00:00 0,7 -2,4 0,0
24.04.2017 20:00:00 0,7 -2,8 0,0
24.04.2017 19:00:00 1,5 -3,8 0,0
24.04.2017 18:00:00 1,6 -3,8 0,0
24.04.2017 17:00:00 2,3 -3,1 0,0
24.04.2017 16:00:00 1,3 -2,2 0,2
24.04.2017 15:00:00 -0,2 -3,0 -
24.04.2017 14:00:00 -0,5 -1,5 0,6
24.04.2017 13:00:00 1,0 -1,0 0,4
24.04.2017 12:00:00 2,8 1,1 0,2
24.04.2017 11:00:00 3,1 -0,7 0,0
24.04.2017 10:00:00 3,3 -2,5 0,0
24.04.2017 09:00:00 1,8 -1,0 0,2
24.04.2017 08:00:00 2,2 -2,2 0,0
24.04.2017 07:00:00 1,2 -1,6 0,2
24.04.2017 06:00:00 1,5 -1,7 0,0
24.04.2017 05:00:00 1,9 -1,4 0,0
24.04.2017 04:00:00 2,1 0,2 0,0
24.04.2017 03:00:00 2,6 0,8 0,2
24.04.2017 02:00:00 2,8 1,1 0,8
24.04.2017 01:00:00 4,1 2,2 1,4
24.04.2017 00:00:00 6,0 4,1 1,0
23.04.2017 23:00:00 6,4 4,0 0,2
23.04.2017 22:00:00 6,5 4,3 0,0
23.04.2017 21:00:00 5,6 3,3 0,0
23.04.2017 20:00:00 6,4 2,0 0,0
23.04.2017 19:00:00 6,7 1,9 0,0
23.04.2017 18:00:00 7,6 1,1 0,0
23.04.2017 17:00:00 7,8 0,8 0,0
23.04.2017 16:00:00 8,8 0,7 0,0
23.04.2017 15:00:00 8,5 0,7 0,0
23.04.2017 14:00:00 8,3 1,6 0,0
23.04.2017 13:00:00 6,6 1,4 -
23.04.2017 12:00:00 6,2 1,1 0,0
23.04.2017 11:00:00 6,4 1,0 0,0
23.04.2017 10:00:00 5,3 0,8 0,0
23.04.2017 09:00:00 4,9 1,0 0,0
23.04.2017 08:00:00 3,9 0,8 0,0
23.04.2017 07:00:00 3,1 0,8 0,0
23.04.2017 06:00:00 0,5 -0,4 0,0
23.04.2017 05:00:00 0,1 -0,9 0,0
23.04.2017 04:00:00 -0,8 -2,1 0,0
23.04.2017 03:00:00 0,2 -1,2 0,0
23.04.2017 02:00:00 1,1 -0,4 0,0
23.04.2017 01:00:00 2,7 0,7 0,0
23.04.2017 00:00:00 2,8 1,2 0,0
22.04.2017 23:00:00 2,7 1,0 0,0
22.04.2017 22:00:00 2,7 0,5 0,0
22.04.2017 21:00:00 3,3 0,9 0,0
22.04.2017 20:00:00 4,6 1,4 0,0
22.04.2017 19:00:00 4,5 1,5 0,2
22.04.2017 18:00:00 4,4 2,2 0,2
22.04.2017 17:00:00 5,3 2,0 0,2
22.04.2017 16:00:00 6,5 -1,0 0,0
22.04.2017 15:00:00 6,7 -2,6 0,0
22.04.2017 14:00:00 6,6 -1,2 0,0
22.04.2017 13:00:00 5,8 -1,8 0,0
22.04.2017 12:00:00 6,3 -2,3 0,0
22.04.2017 11:00:00 5,4 -2,3 0,0
22.04.2017 10:00:00 4,4 -2,2 0,0
22.04.2017 09:00:00 3,9 -1,2 0,0
22.04.2017 08:00:00 2,8 -0,8 0,0
22.04.2017 07:00:00 2,2 -0,9 0,0
22.04.2017 06:00:00 1,2 -0,7 0,0
22.04.2017 05:00:00 1,1 -0,2 0,0
22.04.2017 04:00:00 2,3 -0,4 0,0
22.04.2017 03:00:00 2,4 0,5 0,0
22.04.2017 02:00:00 2,4 0,3 0,0
22.04.2017 01:00:00 2,3 -0,5 0,0
22.04.2017 00:00:00 3,0 -0,6 0,0
21.04.2017 23:00:00 3,8 0,0 0,0
21.04.2017 22:00:00 3,9 0,5 0,0
21.04.2017 21:00:00 4,3 0,4 0,0
21.04.2017 20:00:00 5,7 0,4 0,0
21.04.2017 19:00:00 7,4 0,0 0,0
21.04.2017 18:00:00 8,7 -0,4 0,0
21.04.2017 17:00:00 8,4 1,9 0,0
21.04.2017 16:00:00 10,0 1,3 0,0
21.04.2017 15:00:00 8,8 1,8 0,0
21.04.2017 14:00:00 9,0 2,0 0,0
21.04.2017 13:00:00 8,9 3,2 0,0
21.04.2017 12:00:00 8,7 6,3 0,2
21.04.2017 11:00:00 7,7 5,6 0,8
21.04.2017 10:00:00 8,4 6,6 2,2
21.04.2017 09:00:00 9,3 6,8 0,2
21.04.2017 08:00:00 9,0 6,8 0,0
21.04.2017 07:00:00 8,7 6,8 0,0
21.04.2017 06:00:00 8,6 6,7 0,0
21.04.2017 05:00:00 8,6 6,6 0,2
21.04.2017 04:00:00 8,7 6,7 0,0
21.04.2017 03:00:00 8,9 6,5 0,0
21.04.2017 02:00:00 8,6 6,1 0,0
21.04.2017 01:00:00 8,6 6,3 0,0
21.04.2017 00:00:00 8,4 6,0 0,0

tt = temperature
td = dewpoint
rr = precipitation

Next stations